Hourly Weather Bolshie Osetki

Today, 20 June, Sunday

Time Temperature Precipitation Wind Pressure Humidity
00:00 +18°C° 0 mm 2 mps 752 mmHg 93%
01:00 +18°C° 0 mm 2 mps 752 mmHg 94%
02:00 +18°C° 0 mm 2 mps 752 mmHg 96%
03:00 +19°C° 0 mm 2 mps 751 mmHg 94%
04:00 +20°C° 0 mm 1 mps 751 mmHg 92%
05:00 +21°C° 0 mm 1 mps 751 mmHg 90%
06:00 +23°C° 0 mm 2 mps 751 mmHg 82%
07:00 +25°C° 0 mm 2 mps 751 mmHg 73%
08:00 +27°C° 0 mm 2 mps 751 mmHg 64%
09:00 +28°C° 0 mm 2 mps 751 mmHg 59%
10:00 +30°C° 0 mm 2 mps 751 mmHg 53%
11:00 +31°C° 0 mm 3 mps 751 mmHg 48%
12:00 +31°C° 0 mm 3 mps 751 mmHg 46%
13:00 +33°C° 0 mm 3 mps 751 mmHg 44%
14:00 +34°C° 0 mm 3 mps 750 mmHg 42%
15:00 +33°C° 0 mm 3 mps 750 mmHg 44%
16:00 +33°C° 0 mm 3 mps 750 mmHg 47%
17:00 +31°C° 0 mm 3 mps 750 mmHg 49%
18:00 +29°C° 0 mm 2 mps 750 mmHg 59%
19:00 +28°C° 0 mm 2 mps 750 mmHg 69%
20:00 +26°C° 0 mm 2 mps 749 mmHg 78%
21:00 +25°C° 0 mm 2 mps 749 mmHg 82%
22:00 +24°C° 0 mm 2 mps 749 mmHg 87%
23:00 +21°C° 0 mm 2 mps 749 mmHg 91%

Tomorrow, 21 June, Monday

Time Temperature Precipitation Wind Pressure Humidity
00:00 +21°C° 0 mm 2 mps 750 mmHg 92%
01:00 +20°C° 0 mm 2 mps 750 mmHg 94%
02:00 +20°C° 0 mm 2 mps 750 mmHg 96%
03:00 +21°C° 0 mm 1 mps 750 mmHg 94%
04:00 +21°C° 0 mm 1 mps 750 mmHg 92%
05:00 +22°C° 0 mm 1 mps 750 mmHg 90%
06:00 +23°C° 0 mm 2 mps 750 mmHg 81%
07:00 +25°C° 0 mm 2 mps 750 mmHg 71%
08:00 +27°C° 0 mm 3 mps 750 mmHg 62%
09:00 +28°C° 0 mm 3 mps 750 mmHg 56%
10:00 +29°C° 0 mm 3 mps 750 mmHg 50%
11:00 +31°C° 0 mm 3 mps 749 mmHg 44%
12:00 +32°C° 0 mm 4 mps 749 mmHg 42%
13:00 +33°C° 0 mm 4 mps 749 mmHg 39%
14:00 +33°C° 0 mm 4 mps 749 mmHg 37%
15:00 +33°C° 0 mm 4 mps 749 mmHg 39%
16:00 +32°C° 0 mm 4 mps 749 mmHg 41%
17:00 +32°C° 0 mm 4 mps 748 mmHg 43%
18:00 +29°C° 0 mm 3 mps 748 mmHg 54%
19:00 +27°C° 0 mm 3 mps 748 mmHg 64%
20:00 +25°C° 0 mm 2 mps 748 mmHg 74%
21:00 +24°C° 0 mm 2 mps 748 mmHg 78%
22:00 +23°C° 0 mm 2 mps 748 mmHg 81%
23:00 +21°C° 0 mm 2 mps 748 mmHg 85%

Day after tomorrow, 22 June, Tuesday

Time Temperature Precipitation Wind Pressure Humidity
00:00 +20°C° 0 mm 2 mps 748 mmHg 86%
01:00 +20°C° 0 mm 2 mps 748 mmHg 87%
02:00 +20°C° 0 mm 2 mps 748 mmHg 88%
03:00 +20°C° 0 mm 2 mps 748 mmHg 89%
04:00 +20°C° 0 mm 2 mps 748 mmHg 89%
05:00 +20°C° 0 mm 2 mps 748 mmHg 90%
06:00 +22°C° 0 mm 3 mps 748 mmHg 82%
07:00 +25°C° 0 mm 3 mps 748 mmHg 74%
08:00 +27°C° 0 mm 4 mps 748 mmHg 65%
09:00 +28°C° 0 mm 4 mps 748 mmHg 61%
10:00 +29°C° 0 mm 4 mps 748 mmHg 57%
11:00 +30°C° 0 mm 5 mps 748 mmHg 52%
12:00 +32°C° 0 mm 5 mps 748 mmHg 50%
13:00 +32°C° 0 mm 5 mps 748 mmHg 48%
14:00 +33°C° 0 mm 5 mps 748 mmHg 46%
15:00 +33°C° 0 mm 5 mps 748 mmHg 48%
16:00 +33°C° 0 mm 4 mps 748 mmHg 50%
17:00 +32°C° 0 mm 4 mps 747 mmHg 51%
18:00 +30°C° 0.1 mm 4 mps 748 mmHg 59%
19:00 +28°C° 0.1 mm 3 mps 748 mmHg 67%
20:00 +27°C° 0.1 mm 2 mps 748 mmHg 74%
21:00 +26°C° 0 mm 2 mps 748 mmHg 79%
22:00 +24°C° 0 mm 2 mps 748 mmHg 83%
23:00 +23°C° 0 mm 2 mps 748 mmHg 88%

23 June, Wednesday

Time Temperature Precipitation Wind Pressure Humidity
00:00 +23°C° 0 mm 2 mps 748 mmHg 90%
01:00 +21°C° 0 mm 2 mps 748 mmHg 91%
02:00 +20°C° 0 mm 2 mps 749 mmHg 93%
03:00 +20°C° 0 mm 2 mps 749 mmHg 90%
04:00 +20°C° 0 mm 2 mps 749 mmHg 88%
05:00 +20°C° 0 mm 2 mps 749 mmHg 85%
06:00 +23°C° 0 mm 2 mps 749 mmHg 77%
07:00 +25°C° 0 mm 3 mps 749 mmHg 69%
08:00 +27°C° 0 mm 3 mps 749 mmHg 60%
09:00 +29°C° 0 mm 4 mps 749 mmHg 55%
10:00 +30°C° 0 mm 4 mps 749 mmHg 50%
11:00 +33°C° 0 mm 4 mps 749 mmHg 45%
12:00 +33°C° 0 mm 4 mps 749 mmHg 44%
13:00 +34°C° 0 mm 4 mps 749 mmHg 43%
14:00 +35°C° 0 mm 4 mps 749 mmHg 41%
15:00 +34°C° 0 mm 4 mps 749 mmHg 43%
16:00 +34°C° 0 mm 4 mps 749 mmHg 44%
17:00 +34°C° 0 mm 4 mps 749 mmHg 45%
18:00 +31°C° 0 mm 3 mps 749 mmHg 54%
19:00 +30°C° 0 mm 3 mps 749 mmHg 63%
20:00 +28°C° 0 mm 2 mps 749 mmHg 73%
21:00 +27°C° 0.1 mm 2 mps 749 mmHg 78%
22:00 +25°C° 0.1 mm 2 mps 749 mmHg 82%
23:00 +24°C° 0.1 mm 2 mps 749 mmHg 87%

24 June, Thursday

Time Temperature Precipitation Wind Pressure Humidity
00:00 +24°C° 0 mm 2 mps 749 mmHg 89%
01:00 +23°C° 0 mm 2 mps 749 mmHg 90%
02:00 +23°C° 0 mm 2 mps 749 mmHg 91%
03:00 +23°C° 0 mm 2 mps 749 mmHg 91%
04:00 +23°C° 0 mm 2 mps 749 mmHg 91%
05:00 +23°C° 0 mm 2 mps 749 mmHg 90%
06:00 +25°C° 0 mm 2 mps 749 mmHg 82%
07:00 +27°C° 0 mm 2 mps 749 mmHg 74%
08:00 +29°C° 0 mm 3 mps 749 mmHg 65%
09:00 +30°C° 0 mm 3 mps 749 mmHg 58%
10:00 +33°C° 0 mm 3 mps 749 mmHg 51%
11:00 +34°C° 0 mm 4 mps 749 mmHg 44%
12:00 +35°C° 0 mm 4 mps 749 mmHg 43%
13:00 +35°C° 0 mm 4 mps 749 mmHg 41%
14:00 +35°C° 0 mm 4 mps 749 mmHg 39%
15:00 +35°C° 0 mm 4 mps 748 mmHg 41%
16:00 +35°C° 0 mm 4 mps 748 mmHg 42%
17:00 +34°C° 0 mm 4 mps 748 mmHg 43%
18:00 +31°C° 0 mm 3 mps 748 mmHg 53%
19:00 +30°C° 0 mm 3 mps 747 mmHg 62%
20:00 +28°C° 0 mm 2 mps 747 mmHg 71%
21:00 +26°C° 0.3 mm 2 mps 747 mmHg 77%
22:00 +25°C° 0.3 mm 2 mps 747 mmHg 82%
23:00 +24°C° 0.3 mm 2 mps 747 mmHg 88%

25 June, Friday

Time Temperature Precipitation Wind Pressure Humidity
00:00 +23°C° 0.2 mm 2 mps 747 mmHg 89%
01:00 +21°C° 0.2 mm 2 mps 747 mmHg 90%
02:00 +20°C° 0.2 mm 2 mps 747 mmHg 91%
03:00 +21°C° 0 mm 1 mps 747 mmHg 90%
04:00 +21°C° 0 mm 1 mps 747 mmHg 89%
05:00 +21°C° 0 mm 1 mps 747 mmHg 88%
06:00 +23°C° 0 mm 2 mps 747 mmHg 81%
07:00 +25°C° 0 mm 2 mps 747 mmHg 75%
08:00 +26°C° 0 mm 3 mps 747 mmHg 68%
09:00 +28°C° 0 mm 3 mps 747 mmHg 62%
10:00 +29°C° 0 mm 2 mps 747 mmHg 56%
11:00 +30°C° 0 mm 2 mps 747 mmHg 50%
12:00 +30°C° 0.3 mm 3 mps 747 mmHg 53%
13:00 +29°C° 0.3 mm 3 mps 746 mmHg 56%
14:00 +29°C° 0.3 mm 3 mps 746 mmHg 59%
15:00 +27°C° 3.2 mm 3 mps 746 mmHg 71%
16:00 +24°C° 3.2 mm 2 mps 746 mmHg 82%
17:00 +20°C° 3.2 mm 2 mps 746 mmHg 94%
18:00 +20°C° 0.1 mm 2 mps 746 mmHg 94%
19:00 +20°C° 0.1 mm 2 mps 746 mmHg 94%
20:00 +20°C° 0.1 mm 2 mps 745 mmHg 94%
21:00 +21°C° 0.2 mm 1 mps 745 mmHg 95%
22:00 +20°C° 0.2 mm 1 mps 745 mmHg 97%
23:00 +20°C° 0.2 mm 1 mps 745 mmHg 98%
Show more